Location: Shenandoah County Park
(38.9356°N, 78.4524°W)
Time: 02:09:20
(UTC-05:00)

Envisat - Pass Details

Date: 30 November 2021
Orbit: 764 x 766 km, 98.2° (Epoch: 23 January)

Event Time Altitude Azimuth Distance (km) Brightness Sun altitude
Rises 17:36:31 0° 207° (SSW) 3,217 7.0 -8.7°
Reaches altitude 10° 17:39:35 10° 227° (SW) 2,296 6.7 -9.2°
Maximum altitude 17:42:53 17° 268° (W) 1,840 6.1 -9.8°
Drops below altitude 10° 17:46:13 10° 309° (NW) 2,308 5.9 -10.4°
Sets 17:49:19 0° 329° (NNW) 3,239 6.4 -11.0°
